Weather History for Calgary Springbank, AB

Change the Weather History Date:

Sunday, April 8, 2012

  Actual Average Record
Temperature  
Mean Temperature 30 °F -  
Max Temperature 45 °F 49 °F 62 °F (2014)
Min Temperature 16 °F 26 °F 3 °F (1997)
Degree Days  
Heating Degree Days 34    
Moisture  
Dew Point 17 °F    
Average Humidity 49    
Maximum Humidity 74    
Minimum Humidity 25    
Precipitation  
Precipitation 0.00 in - - ()
Sea Level Pressure  
Sea Level Pressure 30.46 in    
Wind  
Wind Speed 8 mph ()    
Max Wind Speed 15 mph    
Max Gust Speed 22 mph    
Visibility 15.0 miles    
Events      
Averages and records for this station are not official NWS values.
T = Trace of Precipitation, MM = Missing Value Source: Averaged Metar Reports

Daily Weather History Graph

Daily Weather History Graph

Search for Another Location

Airport:

Trip Planner

Search our weather history database for the weather conditions in past years. The results will help you decide how hot, cold, wet, or windy it might be!

Date:

Astronomy

Apr. 08, 2012 Rise Set
Actual Time 6:56 AM MDT 8:23 PM MDT
Civil Twilight 6:22 AM MDT 8:57 PM MDT
Nautical Twilight 5:40 AM MDT 9:39 PM MDT
Astronomical Twilight 4:54 AM MDT 10:25 PM MDT
Moon 11:39 PM MDT (4/8) 7:36 AM MDT (4/8)
Length of Visible Light 14h 35m
Length of Day
13h 26m
Waning Gibbous, 94% of the Moon is Illuminated
Apr 8
Waning Gibbous
Apr 13
Last Quarter
Apr 21
New
Apr 29
First Quarter
May 5
Full

Hourly Weather History & Observations

Time (MDT) Temp. Windchill Dew Point Humidity Pressure Visibility Wind Dir Wind Speed Gust Speed Precip Events Conditions
5:00 AM 23.0 °F 14.7 °F 14.0 °F 68% 30.43 in 15.0 mi NNW 6.9 mph - N/A   Partly Cloudy
6:00 AM 22 °F - 13 °F 58% 30.45 in 15 mi NNW 8.1 mph - -   Scattered Clouds
6:00 AM 23.0 °F 13.9 °F 14.0 °F 68% 30.45 in 15.0 mi NNW 8.1 mph - N/A   Partly Cloudy
7:00 AM 19.4 °F 9.5 °F 12.2 °F 74% 30.47 in 25.0 mi NW 8.1 mph - N/A   Partly Cloudy
8:00 AM 26.6 °F 17.5 °F 15.8 °F 64% 30.47 in 25.0 mi WNW 9.2 mph - N/A   Partly Cloudy
9:00 AM 30.2 °F 24.3 °F 15.8 °F 55% 30.48 in 30.0 mi NNW 5.8 mph - N/A   Partly Cloudy
10:00 AM 37.4 °F 30.8 °F 17.6 °F 45% 30.48 in 30.0 mi NNW 9.2 mph - N/A   Partly Cloudy
11:00 AM 39.2 °F 35.9 °F 14.0 °F 36% 30.49 in 30.0 mi NW 4.6 mph - N/A   Partly Cloudy
12:00 PM 22 °F - 17 °F 71% 30.47 in 28 mi NW 12.7 mph - -   Partly Cloudy
12:00 PM 42.8 °F 36.6 °F 15.8 °F 34% 30.47 in 30.0 mi NW 11.5 mph - N/A   Scattered Clouds
1:00 PM 42.8 °F 35.4 °F 17.6 °F 36% 30.47 in 30.0 mi North 15.0 mph 20.7 mph N/A   Scattered Clouds
2:00 PM 42.8 °F 36.6 °F 19.4 °F 39% 30.46 in 30.0 mi North 11.5 mph 20.7 mph N/A   Scattered Clouds
3:00 PM 41.0 °F 34.3 °F 21.2 °F 45% 30.49 in 30.0 mi North 11.5 mph 21.9 mph N/A   Mostly Cloudy
4:00 PM 44.6 °F 39.2 °F 21.2 °F 39% 30.46 in 30.0 mi NNE 10.4 mph 19.6 mph N/A   Mostly Cloudy
5:00 PM 42.8 °F 36.6 °F 19.4 °F 39% 30.45 in 30.0 mi NNE 11.5 mph 17.3 mph N/A   Mostly Cloudy
6:00 PM 42 °F - 18 °F 25% 30.46 in 28 mi NE 11.5 mph - -   Mostly Cloudy
6:00 PM 41.0 °F 34.7 °F 17.6 °F 39% 30.46 in 30.0 mi NE 10.4 mph 18.4 mph N/A   Mostly Cloudy
7:00 PM 41.0 °F 35.8 °F 17.6 °F 39% 30.46 in 30.0 mi East 8.1 mph - N/A   Mostly Cloudy
8:00 PM 37.4 °F 32.1 °F 19.4 °F 48% 30.47 in 30.0 mi ENE 6.9 mph - N/A   Mostly Cloudy
9:00 PM 33.8 °F 27.0 °F 19.4 °F 56% 30.48 in 30.0 mi East 8.1 mph - N/A   Mostly Cloudy
10:00 PM 33.8 °F 26.4 °F 17.6 °F 52% 30.34 in 15.0 mi East 9.2 mph - N/A   Scattered Clouds